Location: Ocean City
(38.3360°N, 75.0850°W)
Time: 07:28:12
(UTC-05:00)

S-56A Canister/Altair - Visible Passes

Search period start: 15 November 2019 00:00
Search period end: 25 November 2019 00:00
Orbit: 634 x 2498 km, 38.9° (Epoch: 13 November)

Date Brightness Start Highest point End Pass type
(mag) Time Alt. Az. Time Alt. Az. Time Alt. Az.
15 Nov 8.1 18:29:14 10° WSW 18:37:34 71° SSE 18:39:40 43° E visible
15 Nov 10.2 20:35:15 10° W 20:37:06 19° W 20:37:06 19° W visible
16 Nov 8.4 17:55:48 10° WSW 18:04:49 67° SSE 18:08:47 24° E visible
16 Nov 9.3 20:02:02 10° W 20:06:13 35° W 20:06:13 35° W visible
17 Nov 8.8 17:22:19 10° WSW 17:32:00 63° SSE 17:37:53 13° E visible
17 Nov 8.2 19:28:42 10° W 19:35:19 65° W 19:35:19 65° W visible
18 Nov 7.8 18:55:16 10° W 19:03:35 87° N 19:04:25 70° ENE visible
18 Nov 10.7 21:01:25 10° W 21:01:50 12° W 21:01:50 12° W visible
19 Nov 8.2 18:21:44 10° W 18:30:50 89° N 18:33:31 39° E visible
19 Nov 10.0 20:28:13 10° W 20:30:56 23° W 20:30:56 23° W visible
20 Nov 8.5 17:48:08 10° WSW 17:57:59 88° S 18:02:36 22° E visible
20 Nov 9.0 19:54:55 10° W 20:00:02 42° W 20:00:02 42° W visible
21 Nov 8.7 17:14:27 10° WSW 17:25:06 85° SSE 17:31:43 11° E visible
21 Nov 8.1 19:21:31 10° W 19:29:08 77° W 19:29:08 77° W visible
22 Nov 8.0 18:48:00 10° W 18:56:57 88° N 18:58:15 61° E visible
22 Nov 10.5 20:54:24 10° W 20:55:41 15° W 20:55:41 15° W visible
23 Nov 8.4 18:14:24 10° W 18:24:07 87° N 18:27:24 34° E visible
23 Nov 9.8 20:21:06 10° W 20:24:50 28° W 20:24:50 28° W visible
24 Nov 8.6 17:40:42 10° W 17:51:13 86° N 17:56:34 18° E visible
24 Nov 8.8 19:47:41 10° WNW 19:54:00 49° WSW 19:54:00 49° WSW visible
